Погода Шауляй

Погода Шауляй : погода сейчас, прогноз погоды и архив. Всё, что Вы хотите узнать о погоде Шауляй!

Поиск расширенной информации на нашем сайте:

Полезная информация:

Другие новости

Новости СМИ2

Главная страница сайта

Новости сайта

03.07.2017

Напоминаем, что на нашем специализированном сайте Метеоцентр.Азия вы можете получить высокодетализированные автоматические прогнозы погоды по пунктам России, СНГ и мира в авиационном формате (включающие направление и скорость ветра, видимость, явления погоды, количество и форму облачности, нижнюю и верхнюю границу облачности).

Рекомендуем:

Погода Шауляй - сегодня

Время (UTC), дата Ветер
(°,м/с) 
Видим.   Явления Облачность Т
(°С)
Тd
(°С)
f(%) Тe
(°С)
Pmin
(гПа)
dP
(гПа)
Po
(мм)
O2
(г/м3)
Тmin Tmax R s Состояние
почвы
06 19.03.19 260 (З) 2-5{09}  6000 м  слаб. ливневой дождь со снегом  10/10 300 м кучево-дожд. 
[Cb cap]
+1.2 +0.3 94 +1  1011.6  1.8  749  300  +1.2      влажная 
09 19.03.19 260 (З) 4-8{10}  20000 м  слаб. ливневой дождь  10/10 450 м кучево-дожд. 
[Cb cap]
+2.5 +0.6 87 1014  2.5  751  300           
12 19.03.19 260 (З) 5-9{11}  20000 м  слаб. ливневой дождь  10/5 1000 м кучево-дожд., средняя 
[Cb cap|Ac As]
+3.8 +1 82 +1  1016.2  2.2  752  299      0.7     
15 19.03.19 280 (З) 5-9{13}  20000 м  в посл. час ливневой дождь  8/6 660 м кучево-дожд., средняя 
[Cb cap|Ac trans]
+3.8 +0.1 77 +1  1019  2.8  754  300           
18 19.03.19 270 (З) 3-6{11}  20000 м  в посл. час ливневой дождь  10/10 400 м 
[Sc]
+2.2 +0 85 +1  1021.8  2.7  756  302    +4.7  0.7     
21 19.03.19 280 (З) 2-4{08}  14000 м  слаб. ливневой дождь  10/10 360 м кучево-дожд. 
[Cb cap]
+1.7 +0 88 +1  1023.6  1.7  758  303           
00 20.03.19 280 (З) 3-6{09}  20000 м  {ливн. осадки}  10/10 840 м 
[Sc]
+0.5 -2 83 -1  1025.5  1.8  759  305      0.2     
03 20.03.19 240 (ЮЗ) 2-4{06}  20000 м    ясно 
-0.4 -2 89 -1  1026.1  0.6  759  307           
06 20.03.19 240 (ЮЗ) 3-5{05}  19000 м    3/3 200 м 
[St]
+0.1 -1.3 90 -2  1026.8  0.7  760  306  -0.8    0.2    замёрзшая 
09 20.03.19 240 (ЮЗ) 5-10{10}  19000 м    8/6 300 м верхняя 
[Sc|Ci sp]
+4.5 +0.4 75 +2  1027.1  0.5  760  301           
12 20.03.19 260 (З) 5-9{11}  20000 м    8/3 1000 м средняя, верхняя 
[Sc|Ac und|Cs]
+7.7 -2.7 48 +6  1026.1  -0.9  760  298           
15 20.03.19 240 (ЮЗ) 5-9{13}  19000 м    10/3 1000 м средняя 
[Sc|Ac As]
+6.3 -1.4 58 +4  1024.5  -1.6  758  299           
18 20.03.19 230 (ЮЗ) 6-11{14}  16000 м  слаб. дождь  10/10 600 м 
[Ns]
+4.2 +1.2 81 +2  1023.3  -1.3  757  300    +8.2  0.0     
21 20.03.19 270 (З) 3-7{13}  6000 м  слаб. морось{дождь}  10/10 180 м 
[St]
+4.3 +3.7 96 +3  1022.9  -0.3  757  300           
00 21.03.19 280 (З) 3-5{08}  9000 м  дымка{дождь, морось}  10/10 240 м 
[St]
+4.6 +3.7 94 +3  1023.8  0.9  758  300         
03 21.03.19 270 (З) 3-5{07}  10 км    10/10 210 м 
[St]
+4.2 +3.2 93 +3  1025.1  1.2  759  301           
06 21.03.19 240 (ЮЗ) 3-5{07}  8000 м  дымка  10/10 100 м 
[St]
+3.7 +3.1 96 +2  1025.6  0.5  759  301  +3.5      влажная 
09 21.03.19 240 (ЮЗ) 4-7{09}  20000 м    10/10 240 м 
[St]
+5.7 +3.9 88 +4  1025.9  0.4  759  299           
12 21.03.19 250 (З) 5-10{12}  19000 м    10/4 960 м средняя 
[Sc|Ac As]
+7.3 +3.7 78 +6  1024.6  -1.2  759  297           
15 21.03.19 230 (ЮЗ) 5-11{12}  9000 м  морось  10/10 300 м 
[St]
+6.4 +5.1 91 +5  1022  -2.6  757  297           
18 21.03.19 260 (З) 5-10{11}  6000 м  дымка{морось}  10/10 120 м 
[St]
+6.3 +5.6 95 +4  1020.9  -1.1  756  297    +8.1  0.0     
21 21.03.19 270 (З) 5-9{10}  6000 м  дымка{морось}  10/10 150 м 
[St]
+6.5 +5.9 96 +5  1020.3  -0.6  755  296           
00 22.03.19 290 (З) 4-8{11}  11000 м  {морось}  10/10 240 м 
[St]
+7.3 +6.2 93 +6  1021.1  0.8  756  296      0.2     
03 22.03.19 350 (С) 4-8{13}  20000 м    8/8 1500 м 
[Sc]
+5.9 +1.8 75 +4  1024.6  3.4  758  299           
06 22.03.19 330 (СЗ) 6-9{10}  20000 м    ясно 
+4.2 -2.1 64 +2  1028.3  3.6  761  302  +4.1    0.2    влажная 
Время (UTC), дата Ветер
(°,м/с) 
Видим.   Явления Облачность Т
(°С)
Тd
(°С)
f(%) Тe
(°С)
Pmin
(гПа)
dP
(гПа)
Po
(мм)
O2
(г/м3)
Тmin Tmax R s Состояние
почвы

Для получения пояснительной информации подведите курсор к названию столбца.

ПОГОДА Шауляй - архив

Всё, что Вы хотите узнать о погоде Шауляй - удобно и подробно!

Выберите нужную дату (начиная с 1 января 2018* года) и нажмите кнопку "Найти".
Будут отображены архивные сводки погоды по пункту Шауляй, начиная с указанной даты.


Отображать данные в формате CSV (для использования в таблицах Excel)


Внимание! Наш архив погоды предназначен исключительно для личного некоммерческого использования в познавательных целях. Если Вам необходимы официальные справки о состоянии погоды (для производственных, юридических, коммерческих и т.п. целей), обращайтесь в органы Росгидромета.

*Примечание: данная дата относится к архиву по метеостанциям СССР (Россия, СНГ, Балтия).
Архив по метеостанциям Зарубежной Европы и Азии (кроме Китая) хранится 10 дней, по другим регионам земного шара (Китай, Африка, Америка, Австралия, Океания) - 1 день.

Шауляй - район местоположения метеостанции


Название, широта, долгота, высота метеостанции:
Шауляй 55.9°ш. 23.3°д. 107 м над ур. моря [Литва]

Дополнительная информация

В oтличие oт бoльшинства пoгoдных сайтoв мы публикуем пoдрoбную метеoинфoрмацию в детальнoм прoфессиoнальнoм фoрмате.

Характеристики температуры и влажнoсти вoздуха измеряются на высoте 2 м в тени вдали oт зданий и деревьев.
Скoрoсть ветра измеряется на высoте 10 м (на урoвне рoста челoвека скoрoсть ветра ниже в 1.5-2 раза). Если метеoстанция нахoдится в гoрoде или в лесу, тo скoрoсть ветра занижена на 2-4 м/с пo сравнению с oткрытым местoм. Скoрoсть ветра над акватoриями крупных рек и oзёр, а также на вершинах хoлмoв на 2-5 м/с выше, чем в oбычных услoвиях.
Атмoсфернoе давление в разных тoчках местнoсти мoжет значительнo oтличаться oт давления на метеoстанции, в зависимoсти oт услoвий рельефа (при пoдъёме на 10 м давление пoнижается примернo на 1 мм рт.ст.).